Redmond, OR

8:51 AM PST on December 15, 2017 (GMT -0800)
Roberts Field Airport

Weather History for KRDM - March, 2012

Change the Weather History Date:

Wednesday, March 21, 2012

  Actual Average Record
Temperature  
Mean Temperature 35 °F 41 °F  
Max Temperature 38 °F 55 °F 79 °F (1960)
Min Temperature 31 °F 27 °F 10 °F (2008)
Degree Days  
Heating Degree Days 30 24  
Month to date heating degree days 555 543  
Since 1 July heating degree days 5080 5216  
Cooling Degree Days 0 0  
Month to date cooling degree days 0 0  
Year to date cooling degree days 0 0  
Moisture  
Dew Point 31 °F    
Average Humidity 93    
Maximum Humidity 100    
Minimum Humidity 85    
Precipitation  
Precipitation 0.50 in 0.02 in 0.50 in (2012)
Month to date precipitation 0.82 0.44  
Year to date precipitation 3.03 2.06  
Sea Level Pressure  
Sea Level Pressure 29.86 in    
Wind  
Wind Speed 5 mph (NW)    
Max Wind Speed 14 mph    
Max Gust Speed 16 mph    
Visibility 5 miles    
Events Rain , Snow    
T = Trace of Precipitation, MM = Missing Value Source: NWS Daily Summary

Daily Weather History Graph

Daily Weather History Graph

Search for Another Location

Airport or City:

Trip Planner

Search our weather history database for the weather conditions in past years. The results will help you decide how hot, cold, wet, or windy it might be!

Date:

Astronomy

Mar. 21, 2012 Rise Set
Actual Time 7:04 AM PDT 7:19 PM PDT
Civil Twilight 6:35 AM PDT 7:47 PM PDT
Nautical Twilight 6:01 AM PDT 8:22 PM PDT
Astronomical Twilight 5:27 AM PDT 8:57 PM PDT
Moon 6:18 AM PDT (3/21) 6:51 PM PDT (3/21)
Length of Visible Light 13h 12m
Length of Day
12h 14m
Waning Crescent, 1% of the Moon is Illuminated
Mar 21
Waning Crescent
Mar 22
New
Mar 30
First Quarter
Apr 6
Full
Apr 13
Last Quarter

Hourly Weather History & Observations

Time (PDT) Temp. Windchill Dew Point Humidity Pressure Visibility Wind Dir Wind Speed Gust Speed Precip Events Conditions
12:56 AM 35.1 °F 30.1 °F 32.0 °F 89% 29.90 in 8.0 mi NNE 5.8 mph - 0.00 in Rain Light Rain
1:17 AM 35.6 °F 30.7 °F 33.8 °F 93% 29.90 in 6.0 mi NNE 5.8 mph - 0.01 in Rain Light Rain
1:56 AM 33.1 °F 30.0 °F 32.0 °F 96% 29.91 in 4.0 mi NE 3.5 mph - 0.02 in Snow Light Snow
2:17 AM 33.8 °F 28.6 °F 32.0 °F 93% 29.90 in 2.5 mi North 5.8 mph - 0.00 in Snow Light Snow
2:56 AM 33.1 °F - 30.9 °F 92% 29.90 in 2.5 mi Calm Calm - 0.02 in Snow Light Snow
3:29 AM 33.8 °F 29.6 °F 30.2 °F 87% 29.88 in 3.0 mi East 4.6 mph - 0.02 in Snow Light Snow
3:46 AM 33.8 °F 30.8 °F 32.0 °F 93% 29.87 in 4.0 mi ESE 3.5 mph - 0.04 in Snow Light Snow
3:56 AM 33.1 °F 30.0 °F 32.0 °F 96% 29.88 in 3.0 mi ESE 3.5 mph - 0.04 in Snow Light Snow
4:23 AM 33.8 °F - 32.0 °F 93% 29.88 in 2.5 mi Calm Calm - 0.02 in Snow Light Snow
4:37 AM 33.8 °F - 32.0 °F 93% 29.88 in 1.5 mi Calm Calm - 0.04 in Snow Light Snow
4:47 AM 33.8 °F - 30.2 °F 87% 29.88 in 1.2 mi Calm Calm - 0.04 in Snow Light Snow
4:56 AM 33.1 °F - 30.9 °F 92% 29.90 in 1.5 mi Calm Calm - 0.06 in Snow Light Snow
5:16 AM 32.0 °F 28.7 °F 32.0 °F 100% 29.88 in 1.8 mi SSE 3.5 mph - 0.01 in Snow Light Snow
5:33 AM 32.0 °F - 32.0 °F 100% 29.88 in 2.0 mi Calm Calm - 0.03 in Snow Light Snow
5:47 AM 32.0 °F 28.7 °F 30.2 °F 93% 29.88 in 1.5 mi West 3.5 mph - N/A Snow Light Snow
5:56 AM 32.0 °F - 30.9 °F 96% 29.91 in 1.5 mi Calm Calm - 0.05 in Snow Light Snow
6:12 AM 32.0 °F - 30.2 °F 93% 29.88 in 2.0 mi Calm Calm - 0.02 in Snow Light Snow
6:56 AM 32.0 °F - 30.9 °F 96% 29.91 in 2.5 mi Calm Calm - 0.02 in Snow Light Snow
7:09 AM 32.0 °F - 30.2 °F 93% 29.88 in 3.0 mi Calm Calm - 0.01 in Snow Light Snow
7:16 AM 32.0 °F 28.7 °F 30.2 °F 93% 29.88 in 1.8 mi NNW 3.5 mph - 0.01 in Snow Light Snow
7:56 AM 32.0 °F 28.7 °F 30.2 °F 93% 29.88 in 1.0 mi NW 3.5 mph - N/A Snow Light Snow
8:03 AM 32.0 °F 27.5 °F 30.2 °F 93% 29.88 in 0.8 mi NW 4.6 mph - 0.02 in Snow Light Snow
8:10 AM 32.0 °F - 30.2 °F 93% 29.88 in 1.0 mi Calm Calm - 0.02 in Snow Light Snow
8:17 AM 32.0 °F 26.4 °F 30.2 °F 93% 29.88 in 0.8 mi NNW 5.8 mph - 0.04 in Snow Light Snow
8:28 AM 32.0 °F 28.7 °F 30.2 °F 93% 29.88 in 1.0 mi NW 3.5 mph - 0.04 in Snow Light Snow
8:44 AM 32.0 °F 28.7 °F 30.2 °F 93% 29.88 in 0.8 mi NW 3.5 mph - 0.05 in Snow Light Snow
8:56 AM 32.0 °F 26.4 °F 30.9 °F 96% 29.92 in 1.2 mi NW 5.8 mph - 0.05 in Snow Light Snow
9:40 AM 32.0 °F 24.8 °F 30.2 °F 93% 29.87 in 2.5 mi NW 8.1 mph - 0.02 in Snow Light Snow
9:56 AM 32.0 °F 24.8 °F 30.9 °F 96% 29.91 in 2.0 mi NW 8.1 mph - 0.03 in Snow Light Snow
10:03 AM 32.0 °F 24.2 °F 30.2 °F 93% 29.87 in 1.8 mi NNW 9.2 mph - 0.00 in Snow Light Snow
10:56 AM 32.0 °F 23.0 °F 30.0 °F 92% 29.92 in 1.8 mi NNW 11.5 mph - 0.02 in Snow Light Snow
11:04 AM 32.0 °F 24.8 °F 30.2 °F 93% 29.87 in 2.0 mi NW 8.1 mph - 0.00 in Snow Light Snow
11:27 AM 32.0 °F 24.8 °F 30.2 °F 93% 29.87 in 2.5 mi WNW 8.1 mph - 0.00 in Snow Light Snow
11:56 AM 33.1 °F 26.1 °F 30.9 °F 92% 29.91 in 3.0 mi WNW 8.1 mph - 0.00 in Snow Light Snow
12:56 PM 34.0 °F 28.0 °F 32.0 °F 92% 29.90 in 10.0 mi NNW 6.9 mph - 0.00 in Rain Light Rain
1:11 PM 33.8 °F 28.6 °F 32.0 °F 93% 29.86 in 10.0 mi WNW 5.8 mph - 0.00 in   Overcast
1:56 PM 35.1 °F 31.0 °F 33.1 °F 92% 29.89 in 10.0 mi WNW 4.6 mph - 0.00 in   Overcast
2:56 PM 36.0 °F 29.0 °F 32.0 °F 86% 29.87 in 10.0 mi WNW 9.2 mph - N/A   Overcast
3:56 PM 37.0 °F 32.4 °F 33.1 °F 86% 29.86 in 10.0 mi NW 5.8 mph - N/A   Overcast
4:56 PM 36.0 °F 31.1 °F 32.0 °F 86% 29.84 in 10.0 mi NNW 5.8 mph - N/A   Overcast
5:56 PM 35.1 °F 30.1 °F 32.0 °F 89% 29.82 in 10.0 mi WNW 5.8 mph - 0.00 in Rain Light Rain
6:56 PM 33.8 °F 29.6 °F 30.2 °F 87% 29.77 in 10.0 mi NW 4.6 mph - N/A Rain Light Rain
7:10 PM 33.8 °F 29.6 °F 30.2 °F 87% 29.76 in 10.0 mi NW 4.6 mph - 0.02 in Rain Light Rain
7:56 PM 32.0 °F 25.6 °F 30.0 °F 92% 29.79 in 10.0 mi NW 6.9 mph - 0.03 in   Overcast
8:56 PM 32.0 °F 27.5 °F 30.9 °F 96% 29.78 in 10.0 mi WNW 4.6 mph - 0.00 in   Overcast
9:56 PM 30.9 °F 24.3 °F 30.0 °F 96% 29.77 in 10.0 mi WNW 6.9 mph - 0.02 in   Overcast
10:56 PM 30.9 °F 23.5 °F 30.0 °F 96% 29.75 in 8.0 mi NW 8.1 mph - 0.00 in   Overcast
11:35 PM 32.0 °F - 30.2 °F 93% 29.69 in 6.0 mi Calm Calm - 0.02 in Rain Light Freezing Rain
11:48 PM 32.0 °F - 30.2 °F 93% 29.69 in 10.0 mi Calm Calm - 0.02 in Rain Light Freezing Rain
11:56 PM 32.0 °F - 30.0 °F 92% 29.73 in 10.0 mi Calm Calm - 0.02 in Rain Light Freezing Rain